Volver al catálogo

YAOGAN 9B DEB

ActivoMilitarLEO
NORAD 38303·DEBRIS·🇨🇳 China

Lanzado Mar 5, 2010 desde Jiuquan Satellite Launch Center

Loading…

Próximos Pases (próximas 24 horas)

TLE

ActualizadoSource: Space-Track

Época: Sep 13, 2026, 18:46 UTC

1 38303U 10009G   26256.78223452  .00004984  00000-0  15488-2 0  9994
2 38303  63.3444  74.8097 0465951  26.5781 335.8361 13.94029604114550

Sigue YAOGAN 9B DEB en tiempo real con AllMySat

Download on the App Store